When you browse on this site, cookies collect data to enhance your experience and personalize the content and advertising you see.
Visit our Privacy Policy to learn more. By continuing to use the site, you agree to this use of cookies and data.
  • In Hungary
  • List of Countries
  • For 7 days
  • Water Temperature
  • Satellite Maps
  • Weather Map
  • News
  • Weather Widgets
  • user-avatar
    Login

    Hourly Weather Lloret de Mar

    Today, 21 January, Monday

    Time Temperature Precipitation Wind Pressure Humidity
    00:00 +3°C° 0 mm 6 mps 759 mmHg 73%
    01:00 +3°C° 0 mm 6 mps 759 mmHg 72%
    02:00 +3°C° 0 mm 6 mps 759 mmHg 71%
    03:00 +3°C° 0 mm 6 mps 759 mmHg 70%
    04:00 +3°C° 0 mm 6 mps 759 mmHg 70%
    05:00 +3°C° 0 mm 6 mps 760 mmHg 70%
    06:00 +3°C° 0 mm 5 mps 760 mmHg 69%
    07:00 +5°C° 0 mm 5 mps 760 mmHg 65%
    08:00 +6°C° 0 mm 5 mps 761 mmHg 61%
    09:00 +7°C° 0 mm 5 mps 761 mmHg 57%
    10:00 +8°C° 0 mm 5 mps 761 mmHg 51%
    11:00 +10°C° 0 mm 5 mps 761 mmHg 46%
    12:00 +12°C° 0 mm 5 mps 761 mmHg 40%
    13:00 +12°C° 0 mm 4 mps 761 mmHg 41%
    14:00 +12°C° 0 mm 4 mps 761 mmHg 41%
    15:00 +12°C° 0 mm 3 mps 761 mmHg 42%
    16:00 +10°C° 0 mm 3 mps 761 mmHg 49%
    17:00 +9°C° 0 mm 3 mps 761 mmHg 56%
    18:00 +7°C° 0 mm 3 mps 761 mmHg 62%
    19:00 +7°C° 0 mm 3 mps 761 mmHg 64%
    20:00 +7°C° 0 mm 3 mps 762 mmHg 66%
    21:00 +7°C° 0 mm 3 mps 762 mmHg 68%
    22:00 +5°C° 0 mm 3 mps 762 mmHg 69%
    23:00 +6°C° 0 mm 2 mps 762 mmHg 69%

    Tomorrow, 22 January, Tuesday

    Time Temperature Precipitation Wind Pressure Humidity
    00:00 +6°C° 0 mm 2 mps 762 mmHg 70%
    01:00 +5°C° 0 mm 2 mps 761 mmHg 70%
    02:00 +4°C° 0 mm 2 mps 761 mmHg 71%
    03:00 +4°C° 0 mm 2 mps 760 mmHg 72%
    04:00 +4°C° 0 mm 2 mps 760 mmHg 71%
    05:00 +3°C° 0 mm 2 mps 760 mmHg 70%
    06:00 +3°C° 0 mm 2 mps 759 mmHg 69%
    07:00 +4°C° 0 mm 2 mps 759 mmHg 64%
    08:00 +5°C° 0 mm 2 mps 759 mmHg 59%
    09:00 +6°C° 0 mm 2 mps 759 mmHg 54%
    10:00 +7°C° 0 mm 2 mps 758 mmHg 52%
    11:00 +9°C° 0 mm 2 mps 757 mmHg 50%
    12:00 +10°C° 0 mm 2 mps 756 mmHg 48%
    13:00 +10°C° 0 mm 3 mps 755 mmHg 49%
    14:00 +10°C° 0 mm 3 mps 754 mmHg 49%
    15:00 +10°C° 0 mm 4 mps 753 mmHg 49%
    16:00 +8°C° 0 mm 4 mps 753 mmHg 47%
    17:00 +8°C° 0 mm 3 mps 753 mmHg 45%
    18:00 +7°C° 0 mm 3 mps 753 mmHg 42%
    19:00 +7°C° 0 mm 3 mps 752 mmHg 45%
    20:00 +7°C° 0 mm 3 mps 752 mmHg 47%
    21:00 +5°C° 0 mm 3 mps 752 mmHg 49%
    22:00 +6°C° 0 mm 2 mps 752 mmHg 51%
    23:00 +5°C° 0 mm 2 mps 751 mmHg 53%

    Day after tomorrow, 23 January, Wednesday

    Time Temperature Precipitation Wind Pressure Humidity
    00:00 +5°C° 0 mm 2 mps 751 mmHg 55%
    01:00 +5°C° 0 mm 2 mps 751 mmHg 56%
    02:00 +5°C° 0 mm 2 mps 751 mmHg 57%
    03:00 +5°C° 0 mm 2 mps 750 mmHg 58%
    04:00 +5°C° 0.1 mm 2 mps 750 mmHg 62%
    05:00 +5°C° 0.1 mm 2 mps 749 mmHg 66%
    06:00 +4°C° 0.1 mm 2 mps 749 mmHg 70%
    07:00 +4°C° 0.3 mm 3 mps 748 mmHg 73%
    08:00 +4°C° 0.3 mm 3 mps 748 mmHg 76%
    09:00 +4°C° 0.3 mm 3 mps 748 mmHg 78%
    10:00 +4°C° 0.2 mm 4 mps 747 mmHg 75%
    11:00 +5°C° 0.2 mm 5 mps 747 mmHg 72%
    12:00 +6°C° 0.2 mm 5 mps 746 mmHg 68%
    13:00 +5°C° 0.3 mm 7 mps 746 mmHg 62%
    14:00 +5°C° 0.3 mm 8 mps 746 mmHg 56%
    15:00 +5°C° 0.3 mm 9 mps 746 mmHg 50%
    16:00 +3°C° 0 mm 9 mps 746 mmHg 50%
    17:00 +2°C° 0 mm 9 mps 747 mmHg 50%
    18:00 0°C° 0 mm 10 mps 747 mmHg 51%
    19:00 0°C° 0 mm 10 mps 748 mmHg 50%
    20:00 0°C° 0 mm 10 mps 749 mmHg 50%
    21:00 -1°C° 0 mm 11 mps 749 mmHg 50%
    22:00 -1°C° 0 mm 11 mps 750 mmHg 48%
    23:00 -1°C° 0 mm 12 mps 750 mmHg 45%

    24 January, Thursday

    Time Temperature Precipitation Wind Pressure Humidity
    00:00 -1°C° 0 mm 13 mps 750 mmHg 43%
    01:00 -1°C° 0 mm 12 mps 750 mmHg 42%
    02:00 -1°C° 0 mm 12 mps 751 mmHg 41%
    03:00 -1°C° 0 mm 12 mps 751 mmHg 41%
    04:00 -1°C° 0 mm 12 mps 751 mmHg 39%
    05:00 0°C° 0 mm 12 mps 751 mmHg 38%
    06:00 0°C° 0 mm 12 mps 751 mmHg 36%
    07:00 +2°C° 0 mm 12 mps 752 mmHg 34%
    08:00 +2°C° 0 mm 12 mps 752 mmHg 32%
    09:00 +3°C° 0 mm 12 mps 753 mmHg 30%
    10:00 +5°C° 0 mm 12 mps 753 mmHg 28%
    11:00 +7°C° 0 mm 12 mps 753 mmHg 25%
    12:00 +9°C° 0 mm 12 mps 754 mmHg 22%
    13:00 +9°C° 0 mm 11 mps 754 mmHg 22%
    14:00 +10°C° 0 mm 9 mps 754 mmHg 22%
    15:00 +11°C° 0 mm 8 mps 754 mmHg 22%
    16:00 +9°C° 0 mm 7 mps 755 mmHg 27%
    17:00 +7°C° 0 mm 6 mps 756 mmHg 32%
    18:00 +4°C° 0 mm 6 mps 757 mmHg 37%
    19:00 +3°C° 0 mm 6 mps 757 mmHg 40%
    20:00 +2°C° 0 mm 6 mps 758 mmHg 43%
    21:00 +1°C° 0 mm 6 mps 759 mmHg 46%
    22:00 +1°C° 0 mm 5 mps 759 mmHg 47%
    23:00 +1°C° 0 mm 5 mps 759 mmHg 48%

    25 January, Friday

    Time Temperature Precipitation Wind Pressure Humidity
    00:00 +1°C° 0 mm 4 mps 759 mmHg 49%
    01:00 +1°C° 0 mm 4 mps 759 mmHg 49%
    02:00 +2°C° 0 mm 3 mps 758 mmHg 49%
    03:00 +1°C° 0 mm 3 mps 758 mmHg 48%
    04:00 +2°C° 0 mm 3 mps 758 mmHg 47%
    05:00 +3°C° 0 mm 2 mps 758 mmHg 46%
    06:00 +3°C° 0 mm 2 mps 758 mmHg 45%
    07:00 +5°C° 0 mm 2 mps 759 mmHg 44%
    08:00 +6°C° 0 mm 2 mps 759 mmHg 43%
    09:00 +8°C° 0 mm 2 mps 759 mmHg 42%
    10:00 +9°C° 0 mm 2 mps 759 mmHg 39%
    11:00 +12°C° 0 mm 2 mps 759 mmHg 37%
    12:00 +14°C° 0 mm 2 mps 759 mmHg 35%
    13:00 +14°C° 0 mm 2 mps 759 mmHg 37%
    14:00 +14°C° 0 mm 2 mps 759 mmHg 40%
    15:00 +14°C° 0 mm 2 mps 759 mmHg 42%
    16:00 +12°C° 0 mm 2 mps 759 mmHg 48%
    17:00 +10°C° 0 mm 2 mps 759 mmHg 55%
    18:00 +8°C° 0 mm 2 mps 760 mmHg 61%
    19:00 +8°C° 0 mm 2 mps 760 mmHg 63%
    20:00 +8°C° 0 mm 2 mps 760 mmHg 65%
    21:00 +8°C° 0 mm 2 mps 761 mmHg 67%
    22:00 +8°C° 0 mm 2 mps 761 mmHg 68%
    23:00 +7°C° 0 mm 2 mps 761 mmHg 69%

    26 January, Saturday

    Time Temperature Precipitation Wind Pressure Humidity
    00:00 +7°C° 0 mm 2 mps 761 mmHg 71%
    01:00 +7°C° 0 mm 2 mps 761 mmHg 72%
    02:00 +7°C° 0 mm 2 mps 761 mmHg 72%
    03:00 +7°C° 0 mm 2 mps 761 mmHg 73%
    04:00 +7°C° 0 mm 2 mps 761 mmHg 73%
    05:00 +6°C° 0 mm 2 mps 761 mmHg 74%
    06:00 +6°C° 0 mm 2 mps 761 mmHg 74%
    07:00 +7°C° 0 mm 2 mps 761 mmHg 70%
    08:00 +8°C° 0 mm 2 mps 761 mmHg 66%
    09:00 +10°C° 0 mm 2 mps 761 mmHg 62%
    10:00 +12°C° 0 mm 1 mps 761 mmHg 58%
    11:00 +14°C° 0 mm 1 mps 761 mmHg 54%
    12:00 +15°C° 0 mm 1 mps 760 mmHg 51%
    13:00 +15°C° 0 mm 2 mps 760 mmHg 54%
    14:00 +15°C° 0 mm 2 mps 759 mmHg 58%
    15:00 +14°C° 0 mm 3 mps 759 mmHg 62%
    16:00 +12°C° 0 mm 3 mps 759 mmHg 70%
    17:00 +12°C° 0 mm 2 mps 759 mmHg 78%
    18:00 +10°C° 0 mm 2 mps 759 mmHg 86%
    19:00 +10°C° 0.1 mm 2 mps 759 mmHg 86%
    20:00 +10°C° 0.1 mm 2 mps 759 mmHg 86%
    21:00 +10°C° 0.1 mm 2 mps 758 mmHg 85%
    22:00 +10°C° 0 mm 2 mps 758 mmHg 86%
    23:00 +9°C° 0 mm 2 mps 757 mmHg 87%
    Show more